Regional Weather Roundup
Issued by NWS Sterling, VA

Home | Current Version | Previous Version | Graphics & Text | Print | Product List | Glossary On
Versions: 1 2 3 4 5 6 7 8 9 10 11 12 13 14 15 16 17 18 19 20 21 22 23 24 25 26 27 28
000
ASUS41 KLWX 180711
RWRLWX

REGIONAL WEATHER ROUNDUP
NATIONAL WEATHER SERVICE BALTIMORE MD/WASHINGTON DC
200 AM EST THU JAN 18 2018

Note: "FAIR" indicates few or no clouds below 12,000 feet
with no significant weather and/or obstructions to visibility.
 TC=TEMPERATURE CELSIUS

 * =Non NWS site. Station does not report precipitation (e.g. rain,
    snow, etc.), thunder, or fog.

DCZ001-MDZ009-015-VAZ040>042-051-053>054-180800-
WASHINGTON METRO

CITY           SKY/WX    TMP DP  RH WIND       PRES   REMARKS
WASHINGTON NAT FAIR      19   7  59 N10       30.25F WCI   7
DULLES         FAIR      16   7  67 NW12      30.23F WCI   3
ANDREWS AFB    FAIR      17   5  59 NW17G23   30.20F WCI   2
FT BELVOIR     FAIR      18   5  56 NW10G16   30.24F WCI   7
COLLEGE PARK*  FAIR      18   5  57 NW7       30.23F WCI   8
LEESBURG*      FAIR      19  10  68 NW9       30.25F WCI   9
MANASSAS*      FAIR      15   7  70 N7        30.24F WCI   5
GAITHERSBURG*  FAIR      14   6  70 NW10G16   30.21F WCI   1

$$

MDZ006>007-011-014-180800-
BALTIMORE METRO

CITY           SKY/WX    TMP DP  RH WIND       PRES   REMARKS
BWI AIRPORT    MOCLDY    18   8  65 W8        30.22F WCI   8
MD SCIENCE CTR   N/A     21   7  54 MISG      30.22F
MARTIN STATE   FAIR      21  12  68 W8        30.24F WCI  12
ANNAPOLIS      FAIR      21   9  59 NW8       30.21F WCI  11
FORT MEADE*    FAIR      18   9  68 NW6       30.25F WCI   9

$$

MDZ012-015-019>023-180800-
MARYLAND EASTERN SHORE

CITY           SKY/WX    TMP DP  RH WIND       PRES   REMARKS
OCEAN CITY     NOT AVBL
SALISBURY      FAIR      22  10  60 NW18      30.13F WCI   7
BAY BRIDGE AP* FAIR      19   9  63 NW12      30.22F WCI   7
CAMBRIDGE*     CLEAR     21  10  63 NW20G30   30.14F WCI   6
EASTON*        FAIR      21  10  60 N15       30.19F WCI   8

$$

MDZ017>025-180800-
SOUTHERN MARYLAND

CITY           SKY/WX    TMP DP  RH WIND       PRES   REMARKS
PATUXENT RIVER NOT AVBL
ST INIGOES     FAIR      22   9  57 VRB6G16   30.16F WCI  14
LEONARDTOWN*   FAIR      19   9  63 NW8G17    30.17F WCI   9

$$

MDZ003>005-180800-
NORTH CENTRAL MARYLAND

CITY           SKY/WX    TMP DP  RH WIND       PRES   REMARKS
FREDERICK*     FAIR      19   5  53 W7        30.27F WCI  10
HAGERSTOWN APT FAIR      14   5  67 SW6       30.23F WCI   5
WESTMINSTER*   FAIR      14   9  79 NW5       30.18F WCI   6

$$

MDZ501>502-180800-
WESTERN MARYLAND

CITY           SKY/WX    TMP DP  RH WIND       PRES   REMARKS
OAKLAND*       CLOUDY     3   0  85 W13G20    30.11F WCI -14
CUMBERLAND*    FAIR      16   5  62 CALM      30.31F

$$

VAZ025>031-180800-
SHENANDOAH VALLEY

CITY           SKY/WX    TMP DP  RH WIND       PRES   REMARKS
WINCHESTER*    FAIR      18   5  57 W13       30.25F WCI   4
FRONT ROYAL*   MOCLDY    18   5  57 SE5       30.24F WCI  11
LURAY*         FAIR      18   7  62 SE6       30.24F WCI   9
NEW MARKET*    FAIR      10   4  77 CALM      30.24F
STAUNTON*      FAIR       7   2  82 CALM      30.24F
WAYNESBORO*    FAIR      12   3  66 NW3       30.20F

$$

WVZ021-048>050-054>055-180800-
EASTERN WEST VIRGINIA PANHANDLE

CITY           SKY/WX    TMP DP  RH WIND       PRES   REMARKS
MARTINSBURG    FAIR      13   4  67 VRB5      30.24F WCI   5
PETERSBURG*    FAIR       3  -1  86 CALM      30.29S

$$

VAZ036>039-050-180800-
CENTRAL FOOTHILLS

CITY           SKY/WX    TMP DP  RH WIND       PRES   REMARKS
CHARLOTTESVILL FAIR      22   3  44 NW6       30.19F WCI  14
CULPEPER*      FAIR      16   5  60 CALM      30.23F
ORANGE*        FAIR      12   7  79 CALM      30.21F
GORDONSVILLE*  FAIR      14   8  78 MISG      30.20F
WARRENTON*     FAIR      12   4  70 CALM      30.22F

$$

VAZ055>057-180800-
NORTH AND CENTRAL PIEDMONT

CITY           SKY/WX    TMP DP  RH WIND       PRES   REMARKS
FREDERICKSBRG* FAIR      19   9  64 N7        30.21F WCI  10
STAFFORD*      FAIR      17   7  66 N7        30.25F WCI   7

$$

NCZ024-NYZ072-PAZ021-071-VAZ022-071-180800-
OTHER REGIONAL OBSERVATIONS

CITY           SKY/WX    TMP DP  RH WIND       PRES   REMARKS
NEW YORK CITY  FAIR      21   9  59 W6        30.15S WCI  13
PHILADELPHIA   FAIR      19   7  59 NW10      30.20F WCI   7
PITTSBURGH     FAIR       8   4  83 SW8       30.26F WCI  -4
ROANOKE        FAIR      13   2  61 NW7       30.29F WCI   3
RICHMOND       FAIR      20   7  57 N10G20    30.20S WCI   9
RALEIGH        FLURRIES  20  15  81 NW9       30.23F WCI   9

$$

ANZ530>537-180800-
MARINE OBSERVATIONS

STATION/POSITION TIME  TEMP    WIND        PRES
                       AIR SEA DIR/SP/G
                 (UTC) (F)     (DEG/KT/KT) (MB)
THOMAS PT LIGHT  0600   20 31  310/ 13/ 15   N/A
BALT KEY BRIDGE  0642   20     300/ 10/ 13 1023.8F
COVE POINT       0642   21     350/ 27/ 32 1022.0F
LEWISETTA        0636   22 32  360/ 17/ 33 1021.8F
SOLOMONS ISLAND  0642   21 34  330/ 18/ 23 1020.8F
PINEY POINT      0636          360/ 21/ 25   N/A

$$





USA.gov is the U.S. government's official web portal to all federal, state and local government web resources and services.